ECHOSTAR 15

导读 | 星芒AI

ECHOSTAR 15 是一颗由美国EchoStar公司运营的通信卫星,于2005年发射,用于提供直接到户(DTH)的卫星电视服务。该卫星位于西经110度的轨道位置,主要服务于北美地区,支持DirecTV等电视广播平台。ECHOSTAR 15 搭载了多个转发器,能够传输高清和标清电视信号,提升了用户的观看体验。作为EchoStar卫星舰队的一部分,它在卫星通信领域发挥了重要作用。

基本信息
目录编号:
36792
目录名称:
ECHOSTAR 15
国际标识:
2010-034A
轨道中心:
EARTH
卫星名称:
ECHOSTAR 15
卫星全名:
--
卫星状态:
在轨 (已飞行5635 天)
发射日期:
2010-07-10 UTC
国别 :
美国 (US)
星等 :
--
轨道信息
数据来源 国际轨道数据 AOE轨道数据
星历时间 2025-12-13T07:11:16+0800
10小时前
查看轨道信息
2025-12-11T17:00:00+0800
2天前
查看轨道信息
半长轴 42165.149km 42164.448km
偏心率 0.0002325 0.0002235
轨道倾角 0.006° 0.008°
近地点辐角 260.185° 271.884°
升交点赤经 334.948° 322.217°
平近点角 75.795° 222.448°
近地点 35777.21km 35776.889km
远地点 35796.818km 35795.737km
周期 1436.118分钟 1436.082分钟
每日圈数 1.002703 1.002728
详细信息
使用方式:
暂无
2D轨道图
3D轨道图
轨道高度分析图
轨道倾角分析图
轨道综合分析图
查看轨道综合分析图